Location: Croydon
(51.3762°N, 0.0982°W)
Time: 06:59:56
(UTC+00:00)

Altair - Visible Passes

Search period start: 12 November 2019 00:00
Search period end: 22 November 2019 00:00
Orbit: 1502 x 1682 km, 47.2° (Epoch: 11 November)

Date Brightness Start Highest point End Pass type
(mag) Time Alt. Az. Time Alt. Az. Time Alt. Az.
12 Nov 9.4 02:55:47 10° SSE 03:00:30 16° SE 03:05:22 10° E visible
12 Nov 8.3 04:54:43 10° SW 05:03:09 43° SSE 05:11:45 10° E visible
13 Nov 9.4 02:32:44 12° SE 02:35:33 14° SE 02:39:44 10° E visible
13 Nov 8.4 04:30:48 14° SSW 04:38:06 41° SSE 04:46:33 10° E visible
13 Nov 7.9 06:32:46 10° WSW 06:41:50 67° S 06:51:11 10° E visible
14 Nov 9.4 02:09:34 12° SE 02:10:35 12° SE 02:13:55 10° ESE visible
14 Nov 8.4 04:07:37 21° SSW 04:13:02 38° SE 04:21:21 10° E visible
14 Nov 7.8 06:07:40 10° WSW 06:16:43 66° SSE 06:26:01 10° E visible
15 Nov 9.5 01:46:17 11° ESE 01:46:17 11° ESE 01:47:42 10° ESE visible
15 Nov 8.4 03:44:20 27° S 03:48:00 36° SE 03:56:09 10° E visible
15 Nov 7.8 05:42:35 10° WSW 05:51:36 64° SSE 06:00:50 10° E visible
16 Nov 8.4 03:20:57 31° SSE 03:22:57 34° SE 03:30:56 10° E visible
16 Nov 7.7 05:19:00 16° WSW 05:26:29 63° SSE 05:35:40 10° E visible
17 Nov 8.4 02:57:29 32° SE 02:57:56 32° SE 03:05:43 10° E visible
17 Nov 7.7 04:55:32 24° SW 05:01:23 61° SSE 05:10:30 10° E visible
18 Nov 8.6 02:33:58 29° SE 02:33:58 29° SE 02:40:29 10° E visible
18 Nov 7.7 04:32:01 33° SW 04:36:16 59° SSE 04:45:20 10° E visible
18 Nov 7.7 06:31:19 10° W 06:40:26 69° S 06:49:46 10° ESE visible
19 Nov 8.9 02:10:24 25° ESE 02:10:24 25° ESE 02:15:14 10° E visible
19 Nov 7.7 04:08:26 44° SSW 04:11:10 57° SSE 04:20:10 10° E visible
19 Nov 7.7 06:06:28 11° W 06:15:17 69° S 06:24:37 10° ESE visible
20 Nov 9.1 01:46:46 19° ESE 01:46:46 19° ESE 01:49:58 10° E visible
20 Nov 7.6 03:44:49 52° S 03:46:05 55° SSE 03:55:01 10° E visible
20 Nov 7.6 05:42:50 18° W 05:50:10 70° S 05:59:27 10° ESE visible
21 Nov 9.4 01:23:07 14° E 01:23:07 14° E 01:24:42 10° E visible
21 Nov 7.7 03:21:09 53° SSE 03:21:09 53° SSE 03:29:51 10° E visible
21 Nov 7.6 05:19:11 25° WSW 05:25:02 70° S 05:34:18 10° E visible
